Weather History for Jackson, MS

Change the Weather History Date:

Thursday, June 19, 2014

  Actual Average Record
Temperature  
Mean Temperature 81 °F 80 °F  
Max Temperature 91 °F 90 °F 104 °F (1902)
Min Temperature 71 °F 69 °F 57 °F (1999)
Degree Days  
Heating Degree Days 0 0  
Month to date heating degree days 0 0  
Since 1 June heating degree days 0 0  
Since 1 July heating degree days 2744 2391  
Cooling Degree Days 16 15  
Month to date cooling degree days 273 250  
Year to date cooling degree days 604 608  
Since 1 June cooling degree days 273 250  
Growing Degree Days 31 (Base 50)    
Moisture  
Dew Point 71 °F    
Average Humidity 73    
Maximum Humidity 93    
Minimum Humidity 52    
Precipitation  
Precipitation 0.00 in 0.14 in 1.65 in (1975)
Month to date precipitation 3.24 2.51  
Year to date precipitation 34.84 26.62  
Sea Level Pressure  
Sea Level Pressure 30.09 in    
Wind  
Wind Speed 2 mph (SSE)    
Max Wind Speed 13 mph    
Max Gust Speed 15 mph    
Visibility 10 miles    
Events      
T = Trace of Precipitation, MM = Missing Value Source: NWS Daily Summary

Daily Weather History Graph

Daily Weather History Graph

Search for Another Location

Airport:

Trip Planner

Search our weather history database for the weather conditions in past years. The results will help you decide how hot, cold, wet, or windy it might be!

Date:

Astronomy

Jun. 19, 2014 Rise Set
Actual Time 5:53 AM CDT 8:09 PM CDT
Civil Twilight 5:25 AM CDT 8:38 PM CDT
Nautical Twilight 4:50 AM CDT 9:13 PM CDT
Astronomical Twilight 4:12 AM CDT 9:50 PM CDT
Moon 12:35 AM CDT (6/19) 1:00 PM CDT (6/19)
Length of Visible Light 15h 13m
Length of Day
14h 16m
Waning Gibbous, 51% of the Moon is Illuminated
Jun 19
Waning Gibbous
Jun 19
Last Quarter
Jun 27
New
Jul 5
First Quarter
Jul 12
Full

Hourly Weather History & Observations

Time (CDT) Temp. Heat Index Dew Point Humidity Pressure Visibility Wind Dir Wind Speed Gust Speed Precip Events Conditions
12:54 AM 75.0 °F - 70.0 °F 84% 30.06 in 10.0 mi SE 8.1 mph - N/A   Clear
1:54 AM 73.9 °F - 70.0 °F 87% 30.06 in 10.0 mi SSE 8.1 mph - N/A   Clear
2:54 AM 73.0 °F - 70.0 °F 90% 30.06 in 10.0 mi Calm Calm - N/A   Clear
3:54 AM 72.0 °F - 69.1 °F 91% 30.06 in 10.0 mi Calm Calm - N/A   Clear
4:54 AM 71.6 °F - 69.8 °F 94% 30.08 in 10.0 mi SE 3.5 mph - N/A   Clear
5:54 AM 72.0 °F - 69.1 °F 91% 30.09 in 9.0 mi Calm Calm - N/A   Clear
6:54 AM 73.0 °F - 71.1 °F 93% 30.09 in 9.0 mi Calm Calm - 0.01 in   Clear
7:54 AM 77.0 °F - 72.0 °F 84% 30.12 in 10.0 mi Calm Calm - N/A   Clear
8:54 AM 81.0 °F 85.8 °F 73.0 °F 77% 30.13 in 10.0 mi Calm Calm - N/A   Clear
10:54 AM 84.0 °F 89.0 °F 71.1 °F 65% 30.14 in 10.0 mi Calm Calm - N/A   Mostly Cloudy
11:54 AM 88.0 °F 95.6 °F 73.0 °F 61% 30.14 in 10.0 mi SSW 3.5 mph - N/A   Mostly Cloudy
12:54 PM 89.1 °F 96.0 °F 72.0 °F 57% 30.12 in 10.0 mi SSE 4.6 mph - N/A   Mostly Cloudy
1:54 PM 91.0 °F 98.2 °F 72.0 °F 53% 30.11 in 10.0 mi South 6.9 mph - N/A   Mostly Cloudy
2:54 PM 89.1 °F 95.0 °F 71.1 °F 55% 30.09 in 10.0 mi SSW 4.6 mph - N/A   Mostly Cloudy
3:54 PM 87.1 °F 93.6 °F 72.0 °F 61% 30.08 in 10.0 mi SW 3.5 mph - N/A   Scattered Clouds
4:54 PM 84.9 °F 94.1 °F 75.9 °F 74% 30.07 in 10.0 mi Calm Calm - N/A   Mostly Cloudy
5:54 PM 82.0 °F 86.3 °F 71.1 °F 69% 30.06 in 10.0 mi Variable 3.5 mph - N/A   Mostly Cloudy
6:54 PM 82.0 °F 86.3 °F 71.1 °F 69% 30.06 in 10.0 mi North 4.6 mph - N/A   Mostly Cloudy
7:54 PM 80.1 °F 83.8 °F 72.0 °F 76% 30.07 in 10.0 mi NE 8.1 mph - N/A   Scattered Clouds
8:54 PM 78.1 °F - 71.1 °F 79% 30.06 in 10.0 mi Calm Calm - N/A   Scattered Clouds
9:54 PM 75.0 °F - 71.1 °F 87% 30.07 in 10.0 mi Calm Calm - N/A   Partly Cloudy
10:54 PM 75.0 °F - 72.0 °F 90% 30.07 in 10.0 mi Calm Calm - N/A   Partly Cloudy
11:54 PM 75.0 °F - 72.0 °F 90% 30.07 in 10.0 mi Calm Calm - N/A   Clear